When you browse on this site, cookies collect data to enhance your experience and personalize the content and advertising you see.
Visit our Privacy Policy to learn more. By continuing to use the site, you agree to this use of cookies and data.
  • In Netherlands
  • List of Countries
  • For 7 days
  • Water Temperature
  • Satellite Maps
  • Weather Map
  • Weather Widgets
  • user-avatar
    Login

    Hourly Weather Probuzhdenie

    Today, 13 December, Thursday

    Time Temperature Precipitation Wind Pressure Humidity
    00:00 +4°C° 0.8 mm 2 mps 758 mmHg 88%
    01:00 +3°C° 0.6 mm 2 mps 758 mmHg 88%
    02:00 +3°C° 0.6 mm 2 mps 758 mmHg 88%
    03:00 +3°C° 0 mm 2 mps 758 mmHg 88%
    04:00 +3°C° 0.7 mm 2 mps 758 mmHg 89%
    05:00 +3°C° 0.7 mm 2 mps 759 mmHg 89%
    06:00 +1°C° 0.7 mm 3 mps 759 mmHg 90%
    07:00 +1°C° 0.4 mm 3 mps 759 mmHg 91%
    08:00 +2°C° 0.4 mm 2 mps 760 mmHg 91%
    09:00 +2°C° 0.4 mm 2 mps 760 mmHg 91%
    10:00 +1°C° 0.1 mm 3 mps 760 mmHg 89%
    11:00 +2°C° 0.1 mm 3 mps 761 mmHg 87%
    12:00 +1°C° 0.1 mm 4 mps 761 mmHg 85%
    13:00 +2°C° 0 mm 3 mps 761 mmHg 83%
    14:00 +2°C° 0 mm 3 mps 761 mmHg 82%
    15:00 +2°C° 0 mm 3 mps 762 mmHg 81%
    16:00 +1°C° 0 mm 3 mps 762 mmHg 82%
    17:00 +1°C° 0 mm 3 mps 763 mmHg 83%
    18:00 0°C° 0 mm 3 mps 763 mmHg 84%
    19:00 0°C° 0 mm 3 mps 763 mmHg 85%
    20:00 0°C° 0 mm 3 mps 763 mmHg 85%
    21:00 0°C° 0 mm 3 mps 764 mmHg 86%
    22:00 +1°C° 0 mm 2 mps 764 mmHg 86%
    23:00 +1°C° 0 mm 2 mps 764 mmHg 87%

    Tomorrow, 14 December, Friday

    Time Temperature Precipitation Wind Pressure Humidity
    00:00 -1°C° 0 mm 2 mps 764 mmHg 88%
    01:00 -1°C° 0 mm 2 mps 764 mmHg 88%
    02:00 -1°C° 0 mm 2 mps 764 mmHg 89%
    03:00 -1°C° 0 mm 2 mps 764 mmHg 90%
    04:00 -1°C° 0 mm 2 mps 764 mmHg 90%
    05:00 -1°C° 0 mm 2 mps 764 mmHg 90%
    06:00 +1°C° 0 mm 1 mps 764 mmHg 89%
    07:00 +1°C° 0 mm 1 mps 765 mmHg 88%
    08:00 +1°C° 0 mm 1 mps 765 mmHg 87%
    09:00 +1°C° 0 mm 1 mps 765 mmHg 86%
    10:00 +2°C° 0 mm 1 mps 765 mmHg 83%
    11:00 +2°C° 0 mm 2 mps 765 mmHg 80%
    12:00 +3°C° 0 mm 2 mps 765 mmHg 76%
    13:00 +3°C° 0 mm 2 mps 765 mmHg 77%
    14:00 +3°C° 0 mm 2 mps 765 mmHg 78%
    15:00 +3°C° 0 mm 2 mps 765 mmHg 79%
    16:00 +2°C° 0 mm 2 mps 765 mmHg 81%
    17:00 +2°C° 0 mm 2 mps 765 mmHg 84%
    18:00 +1°C° 0 mm 2 mps 765 mmHg 86%
    19:00 +1°C° 0 mm 2 mps 765 mmHg 87%
    20:00 -1°C° 0 mm 2 mps 766 mmHg 87%
    21:00 -1°C° 0 mm 2 mps 766 mmHg 88%
    22:00 -1°C° 0 mm 3 mps 766 mmHg 88%
    23:00 -1°C° 0 mm 3 mps 766 mmHg 88%

    Day after tomorrow, 15 December, Saturday

    Time Temperature Precipitation Wind Pressure Humidity
    00:00 -1°C° 0 mm 3 mps 766 mmHg 89%
    01:00 -1°C° 0 mm 3 mps 766 mmHg 89%
    02:00 -1°C° 0 mm 3 mps 767 mmHg 89%
    03:00 -2°C° 0 mm 3 mps 767 mmHg 89%
    04:00 -2°C° 0 mm 3 mps 767 mmHg 89%
    05:00 -2°C° 0 mm 3 mps 767 mmHg 90%
    06:00 -2°C° 0 mm 3 mps 767 mmHg 90%
    07:00 -2°C° 0 mm 3 mps 767 mmHg 89%
    08:00 -1°C° 0 mm 3 mps 768 mmHg 88%
    09:00 -1°C° 0 mm 3 mps 768 mmHg 88%
    10:00 -1°C° 0 mm 4 mps 768 mmHg 83%
    11:00 -1°C° 0 mm 4 mps 769 mmHg 79%
    12:00 0°C° 0 mm 4 mps 769 mmHg 75%
    13:00 0°C° 0 mm 4 mps 769 mmHg 75%
    14:00 0°C° 0 mm 4 mps 769 mmHg 75%
    15:00 0°C° 0 mm 4 mps 769 mmHg 75%
    16:00 0°C° 0 mm 3 mps 769 mmHg 78%
    17:00 -1°C° 0 mm 3 mps 770 mmHg 82%
    18:00 -2°C° 0 mm 3 mps 770 mmHg 85%
    19:00 -2°C° 0 mm 3 mps 770 mmHg 86%
    20:00 -2°C° 0 mm 2 mps 771 mmHg 86%
    21:00 -3°C° 0 mm 2 mps 771 mmHg 87%
    22:00 -3°C° 0 mm 2 mps 771 mmHg 87%
    23:00 -3°C° 0 mm 2 mps 771 mmHg 87%

    16 December, Sunday

    Time Temperature Precipitation Wind Pressure Humidity
    00:00 -3°C° 0 mm 2 mps 771 mmHg 87%
    01:00 -3°C° 0 mm 2 mps 771 mmHg 87%
    02:00 -3°C° 0 mm 2 mps 772 mmHg 87%
    03:00 -3°C° 0 mm 2 mps 772 mmHg 87%
    04:00 -4°C° 0 mm 3 mps 772 mmHg 86%
    05:00 -4°C° 0 mm 3 mps 772 mmHg 86%
    06:00 -4°C° 0 mm 3 mps 772 mmHg 85%
    07:00 -4°C° 0 mm 3 mps 772 mmHg 84%
    08:00 -4°C° 0 mm 4 mps 772 mmHg 83%
    09:00 -4°C° 0 mm 4 mps 772 mmHg 81%
    10:00 -4°C° 0 mm 4 mps 772 mmHg 80%
    11:00 -3°C° 0 mm 4 mps 772 mmHg 78%
    12:00 -3°C° 0 mm 4 mps 772 mmHg 77%
    13:00 -3°C° 0 mm 4 mps 772 mmHg 78%
    14:00 -3°C° 0 mm 4 mps 771 mmHg 78%
    15:00 -4°C° 0 mm 5 mps 771 mmHg 79%
    16:00 -4°C° 0 mm 5 mps 771 mmHg 80%
    17:00 -5°C° 0 mm 5 mps 771 mmHg 82%
    18:00 -5°C° 0 mm 5 mps 771 mmHg 83%
    19:00 -5°C° 0 mm 5 mps 771 mmHg 83%
    20:00 -5°C° 0 mm 5 mps 771 mmHg 82%
    21:00 -6°C° 0 mm 5 mps 771 mmHg 82%
    22:00 -6°C° 0 mm 5 mps 771 mmHg 81%
    23:00 -6°C° 0 mm 5 mps 771 mmHg 80%

    17 December, Monday

    Time Temperature Precipitation Wind Pressure Humidity
    00:00 -7°C° 0 mm 5 mps 771 mmHg 79%
    01:00 -7°C° 0 mm 5 mps 771 mmHg 79%
    02:00 -8°C° 0 mm 6 mps 771 mmHg 78%
    03:00 -8°C° 0 mm 6 mps 771 mmHg 77%
    04:00 -9°C° 0 mm 6 mps 771 mmHg 77%
    05:00 -9°C° 0 mm 6 mps 770 mmHg 76%
    06:00 -9°C° 0 mm 6 mps 770 mmHg 76%
    07:00 -9°C° 0 mm 6 mps 770 mmHg 75%
    08:00 -9°C° 0 mm 6 mps 770 mmHg 75%
    09:00 -9°C° 0 mm 6 mps 770 mmHg 74%
    10:00 -9°C° 0 mm 6 mps 770 mmHg 72%
    11:00 -8°C° 0 mm 6 mps 770 mmHg 69%
    12:00 -8°C° 0 mm 6 mps 770 mmHg 66%
    13:00 -8°C° 0 mm 6 mps 770 mmHg 67%
    14:00 -8°C° 0 mm 6 mps 769 mmHg 67%
    15:00 -8°C° 0 mm 6 mps 769 mmHg 67%
    16:00 -8°C° 0 mm 6 mps 769 mmHg 70%
    17:00 -9°C° 0 mm 7 mps 770 mmHg 72%
    18:00 -9°C° 0 mm 7 mps 770 mmHg 74%
    19:00 -9°C° 0 mm 7 mps 770 mmHg 75%
    20:00 -11°C° 0 mm 7 mps 770 mmHg 76%
    21:00 -11°C° 0 mm 7 mps 770 mmHg 78%
    22:00 -11°C° 0 mm 7 mps 770 mmHg 79%
    23:00 -11°C° 0 mm 7 mps 770 mmHg 80%

    18 December, Tuesday

    Time Temperature Precipitation Wind Pressure Humidity
    00:00 -10°C° 0 mm 6 mps 770 mmHg 81%
    01:00 -10°C° 0 mm 6 mps 770 mmHg 82%
    02:00 -11°C° 0 mm 7 mps 770 mmHg 82%
    03:00 -9°C° 0 mm 7 mps 770 mmHg 82%
    04:00 -9°C° 0 mm 7 mps 770 mmHg 82%
    05:00 -9°C° 0 mm 7 mps 769 mmHg 82%
    06:00 -9°C° 0 mm 7 mps 769 mmHg 82%
    07:00 -9°C° 0 mm 7 mps 770 mmHg 81%
    08:00 -9°C° 0 mm 7 mps 770 mmHg 80%
    09:00 -8°C° 0 mm 7 mps 770 mmHg 80%
    10:00 -8°C° 0 mm 7 mps 770 mmHg 78%
    11:00 -7°C° 0 mm 7 mps 770 mmHg 77%
    12:00 -7°C° 0 mm 7 mps 770 mmHg 75%
    13:00 -7°C° 0 mm 7 mps 769 mmHg 75%
    14:00 -7°C° 0 mm 7 mps 769 mmHg 75%
    15:00 -6°C° 0 mm 7 mps 769 mmHg 75%
    16:00 -6°C° 0 mm 7 mps 769 mmHg 76%
    17:00 -6°C° 0 mm 7 mps 769 mmHg 77%
    18:00 -6°C° 0 mm 7 mps 769 mmHg 78%
    19:00 -6°C° 0 mm 7 mps 769 mmHg 78%
    20:00 -6°C° 0 mm 7 mps 769 mmHg 79%
    21:00 -6°C° 0 mm 7 mps 769 mmHg 79%
    22:00 -6°C° 0 mm 7 mps 769 mmHg 80%
    23:00 -5°C° 0 mm 6 mps 769 mmHg 81%
    Show more